Guest User

Untitled

a guest
Jan 23rd, 2013
216
Never
Not a member of Pastebin yet? Sign Up, it unlocks many cool features!
  1. 02:20:38 T:1900 NOTICE: -----------------------------------------------------------------------
  2. 02:20:38 T:1900 NOTICE: Starting XBMC (11.0 Git:20120321-14feb09), Platform: Windows 7, 64-bit (WoW) Service Pack 1 build 7601. Built on Mar 21 2012 (compiler 1600)
  3. 02:20:38 T:1900 NOTICE: Intel(R) Core(TM)2 Duo CPU T6400 @ 2.00GHz
  4. 02:20:38 T:1900 NOTICE: Desktop Resolution: 1366x768 32Bit at 60Hz
  5. 02:20:38 T:1900 NOTICE: Running with restricted rights
  6. 02:20:38 T:1900 NOTICE: Aero is enabled
  7. 02:20:38 T:1900 NOTICE: special://xbmc/ is mapped to: C:\Program Files (x86)\XBMC
  8. 02:20:38 T:1900 NOTICE: special://xbmcbin/ is mapped to: C:\Program Files (x86)\XBMC
  9. 02:20:38 T:1900 NOTICE: special://masterprofile/ is mapped to: C:\Users\Brian\AppData\Roaming\XBMC\userdata
  10. 02:20:38 T:1900 NOTICE: special://home/ is mapped to: C:\Users\Brian\AppData\Roaming\XBMC\
  11. 02:20:38 T:1900 NOTICE: special://temp/ is mapped to: C:\Users\Brian\AppData\Roaming\XBMC\cache
  12. 02:20:38 T:1900 NOTICE: The executable running is: C:\Program Files (x86)\XBMC\XBMC.exe
  13. 02:20:38 T:1900 NOTICE: Local hostname: Brian_Notebook
  14. 02:20:38 T:1900 NOTICE: Log File is located: C:\Users\Brian\AppData\Roaming\XBMC\xbmc.log
  15. 02:20:38 T:1900 NOTICE: -----------------------------------------------------------------------
  16. 02:20:38 T:1900 NOTICE: Setup SDL
  17. 02:20:38 T:1900 NOTICE: Found screen: Generic PnP Monitor on Mobile Intel(R) 4 Series Express Chipset Family, adapter 0.
  18. 02:20:38 T:1900 NOTICE: Found screen: Generic Non-PnP Monitor on Mobile Intel(R) 4 Series Express Chipset Family, adapter 1.
  19. 02:20:38 T:1900 NOTICE: Primary mode: 1366x768 @ 60.00 - Full Screen
  20. 02:20:38 T:1900 NOTICE: Secondary mode: 1280x1024 @ 60.00 - Full Screen #2
  21. 02:20:38 T:1900 NOTICE: Additional mode: 320x200 @ 60.00 - Full Screen
  22. 02:20:38 T:1900 NOTICE: Previous line repeats 2 times.
  23. 02:20:38 T:1900 NOTICE: Additional mode: 320x240 @ 60.00 - Full Screen
  24. 02:20:38 T:1900 NOTICE: Previous line repeats 2 times.
  25. 02:20:38 T:1900 NOTICE: Additional mode: 400x300 @ 60.00 - Full Screen
  26. 02:20:38 T:1900 NOTICE: Previous line repeats 2 times.
  27. 02:20:38 T:1900 NOTICE: Additional mode: 512x384 @ 60.00 - Full Screen
  28. 02:20:38 T:1900 NOTICE: Previous line repeats 2 times.
  29. 02:20:38 T:1900 NOTICE: Additional mode: 640x400 @ 60.00 - Full Screen
  30. 02:20:38 T:1900 NOTICE: Previous line repeats 2 times.
  31. 02:20:38 T:1900 NOTICE: Additional mode: 640x480 @ 60.00 - Full Screen
  32. 02:20:38 T:1900 NOTICE: Previous line repeats 2 times.
  33. 02:20:38 T:1900 NOTICE: Additional mode: 800x600 @ 60.00 - Full Screen
  34. 02:20:38 T:1900 NOTICE: Previous line repeats 2 times.
  35. 02:20:38 T:1900 NOTICE: Additional mode: 1024x768 @ 60.00 - Full Screen
  36. 02:20:38 T:1900 NOTICE: Previous line repeats 2 times.
  37. 02:20:38 T:1900 NOTICE: Additional mode: 1280x600 @ 60.00 - Full Screen
  38. 02:20:38 T:1900 NOTICE: Previous line repeats 2 times.
  39. 02:20:38 T:1900 NOTICE: Additional mode: 1280x720 @ 60.00 - Full Screen
  40. 02:20:38 T:1900 NOTICE: Previous line repeats 2 times.
  41. 02:20:38 T:1900 NOTICE: Additional mode: 1280x768 @ 60.00 - Full Screen
  42. 02:20:38 T:1900 NOTICE: Previous line repeats 2 times.
  43. 02:20:38 T:1900 NOTICE: Additional mode: 1360x768 @ 60.00 - Full Screen
  44. 02:20:38 T:1900 NOTICE: Previous line repeats 2 times.
  45. 02:20:38 T:1900 NOTICE: Additional mode: 1366x768 @ 60.00 - Full Screen
  46. 02:20:38 T:1900 NOTICE: Additional mode: 320x200 @ 70.00 - Full Screen #2
  47. 02:20:38 T:1900 NOTICE: Additional mode: 320x240 @ 70.00 - Full Screen #2
  48. 02:20:38 T:1900 NOTICE: Additional mode: 400x300 @ 70.00 - Full Screen #2
  49. 02:20:38 T:1900 NOTICE: Additional mode: 512x384 @ 70.00 - Full Screen #2
  50. 02:20:38 T:1900 NOTICE: Additional mode: 640x400 @ 70.00 - Full Screen #2
  51. 02:20:38 T:1900 NOTICE: Additional mode: 640x480 @ 59.94 - Full Screen #2
  52. 02:20:38 T:1900 NOTICE: Additional mode: 640x480 @ 60.00 - Full Screen #2
  53. 02:20:38 T:1900 NOTICE: Additional mode: 640x480 @ 70.00 - Full Screen #2
  54. 02:20:38 T:1900 NOTICE: Additional mode: 640x480 @ 73.00 - Full Screen #2
  55. 02:20:38 T:1900 NOTICE: Additional mode: 640x480 @ 75.00 - Full Screen #2
  56. 02:20:38 T:1900 NOTICE: Additional mode: 640x480 @ 85.00 - Full Screen #2
  57. 02:20:38 T:1900 NOTICE: Additional mode: 640x480 @ 100.00 - Full Screen #2
  58. 02:20:38 T:1900 NOTICE: Additional mode: 640x480 @ 120.00 - Full Screen #2
  59. 02:20:38 T:1900 NOTICE: Additional mode: 800x600 @ 60.00 - Full Screen #2
  60. 02:20:38 T:1900 NOTICE: Additional mode: 800x600 @ 72.00 - Full Screen #2
  61. 02:20:38 T:1900 NOTICE: Additional mode: 800x600 @ 75.00 - Full Screen #2
  62. 02:20:38 T:1900 NOTICE: Additional mode: 800x600 @ 85.00 - Full Screen #2
  63. 02:20:38 T:1900 NOTICE: Additional mode: 800x600 @ 100.00 - Full Screen #2
  64. 02:20:38 T:1900 NOTICE: Additional mode: 800x600 @ 120.00 - Full Screen #2
  65. 02:20:38 T:1900 NOTICE: Additional mode: 1024x768 @ 60.00 - Full Screen #2
  66. 02:20:38 T:1900 NOTICE: Additional mode: 1024x768 @ 70.00 - Full Screen #2
  67. 02:20:38 T:1900 NOTICE: Additional mode: 1024x768 @ 75.00 - Full Screen #2
  68. 02:20:38 T:1900 NOTICE: Additional mode: 1024x768 @ 85.00 - Full Screen #2
  69. 02:20:38 T:1900 NOTICE: Additional mode: 1024x768 @ 100.00 - Full Screen #2
  70. 02:20:38 T:1900 NOTICE: Additional mode: 1024x768 @ 120.00 - Full Screen #2
  71. 02:20:38 T:1900 NOTICE: Additional mode: 1152x864 @ 60.00 - Full Screen #2
  72. 02:20:38 T:1900 NOTICE: Additional mode: 1152x864 @ 75.00 - Full Screen #2
  73. 02:20:38 T:1900 NOTICE: Additional mode: 1152x864 @ 85.00 - Full Screen #2
  74. 02:20:38 T:1900 NOTICE: Additional mode: 1152x864 @ 100.00 - Full Screen #2
  75. 02:20:38 T:1900 NOTICE: Additional mode: 1280x600 @ 60.00 - Full Screen #2
  76. 02:20:38 T:1900 NOTICE: Additional mode: 1280x720 @ 60.00 - Full Screen #2
  77. 02:20:38 T:1900 NOTICE: Additional mode: 1280x720 @ 75.00 - Full Screen #2
  78. 02:20:38 T:1900 NOTICE: Additional mode: 1280x720 @ 85.00 - Full Screen #2
  79. 02:20:38 T:1900 NOTICE: Additional mode: 1280x720 @ 100.00 - Full Screen #2
  80. 02:20:38 T:1900 NOTICE: Additional mode: 1280x768 @ 60.00 - Full Screen #2
  81. 02:20:38 T:1900 NOTICE: Additional mode: 1280x768 @ 75.00 - Full Screen #2
  82. 02:20:38 T:1900 NOTICE: Additional mode: 1280x768 @ 85.00 - Full Screen #2
  83. 02:20:38 T:1900 NOTICE: Additional mode: 1280x768 @ 120.00 - Full Screen #2
  84. 02:20:38 T:1900 NOTICE: Additional mode: 1280x800 @ 60.00 - Full Screen #2
  85. 02:20:38 T:1900 NOTICE: Additional mode: 1280x800 @ 75.00 - Full Screen #2
  86. 02:20:38 T:1900 NOTICE: Additional mode: 1280x800 @ 85.00 - Full Screen #2
  87. 02:20:38 T:1900 NOTICE: Additional mode: 1280x800 @ 120.00 - Full Screen #2
  88. 02:20:38 T:1900 NOTICE: Additional mode: 1280x960 @ 60.00 - Full Screen #2
  89. 02:20:38 T:1900 NOTICE: Additional mode: 1280x960 @ 75.00 - Full Screen #2
  90. 02:20:38 T:1900 NOTICE: Additional mode: 1280x960 @ 85.00 - Full Screen #2
  91. 02:20:38 T:1900 NOTICE: Additional mode: 1280x960 @ 120.00 - Full Screen #2
  92. 02:20:38 T:1900 NOTICE: Additional mode: 1280x1024 @ 60.00 - Full Screen #2
  93. 02:20:38 T:1900 NOTICE: Additional mode: 1280x1024 @ 75.00 - Full Screen #2
  94. 02:20:38 T:1900 NOTICE: Additional mode: 1280x1024 @ 85.00 - Full Screen #2
  95. 02:20:38 T:1900 NOTICE: Additional mode: 1280x1024 @ 100.00 - Full Screen #2
  96. 02:20:38 T:1900 NOTICE: Additional mode: 1280x1024 @ 120.00 - Full Screen #2
  97. 02:20:38 T:1900 NOTICE: Additional mode: 1360x768 @ 60.00 - Full Screen #2
  98. 02:20:38 T:1900 NOTICE: Additional mode: 1360x768 @ 120.00 - Full Screen #2
  99. 02:20:38 T:1900 NOTICE: Additional mode: 1366x768 @ 60.00 - Full Screen #2
  100. 02:20:38 T:1900 NOTICE: Additional mode: 1400x1050 @ 60.00 - Full Screen #2
  101. 02:20:38 T:1900 NOTICE: Additional mode: 1400x1050 @ 75.00 - Full Screen #2
  102. 02:20:38 T:1900 NOTICE: Additional mode: 1400x1050 @ 85.00 - Full Screen #2
  103. 02:20:38 T:1900 NOTICE: Additional mode: 1400x1050 @ 120.00 - Full Screen #2
  104. 02:20:38 T:1900 NOTICE: Additional mode: 1440x900 @ 60.00 - Full Screen #2
  105. 02:20:38 T:1900 NOTICE: Additional mode: 1440x900 @ 75.00 - Full Screen #2
  106. 02:20:38 T:1900 NOTICE: Additional mode: 1440x900 @ 85.00 - Full Screen #2
  107. 02:20:38 T:1900 NOTICE: Additional mode: 1440x900 @ 120.00 - Full Screen #2
  108. 02:20:38 T:1900 NOTICE: Additional mode: 1600x900 @ 60.00 - Full Screen #2
  109. 02:20:38 T:1900 NOTICE: Additional mode: 1600x900 @ 75.00 - Full Screen #2
  110. 02:20:38 T:1900 NOTICE: Additional mode: 1600x900 @ 85.00 - Full Screen #2
  111. 02:20:38 T:1900 NOTICE: Additional mode: 1600x900 @ 100.00 - Full Screen #2
  112. 02:20:38 T:1900 NOTICE: Additional mode: 1600x900 @ 120.00 - Full Screen #2
  113. 02:20:38 T:1900 NOTICE: Additional mode: 1600x1200 @ 60.00 - Full Screen #2
  114. 02:20:38 T:1900 NOTICE: Additional mode: 1600x1200 @ 70.00 - Full Screen #2
  115. 02:20:38 T:1900 NOTICE: Additional mode: 1600x1200 @ 75.00 - Full Screen #2
  116. 02:20:38 T:1900 NOTICE: Additional mode: 1600x1200 @ 85.00 - Full Screen #2
  117. 02:20:38 T:1900 NOTICE: Additional mode: 1600x1200 @ 100.00 - Full Screen #2
  118. 02:20:38 T:1900 NOTICE: Additional mode: 1680x1050 @ 60.00 - Full Screen #2
  119. 02:20:38 T:1900 NOTICE: Additional mode: 1680x1050 @ 75.00 - Full Screen #2
  120. 02:20:38 T:1900 NOTICE: Additional mode: 1680x1050 @ 85.00 - Full Screen #2
  121. 02:20:38 T:1900 NOTICE: Additional mode: 1792x1344 @ 60.00 - Full Screen #2
  122. 02:20:38 T:1900 NOTICE: Additional mode: 1792x1344 @ 75.00 - Full Screen #2
  123. 02:20:38 T:1900 NOTICE: Additional mode: 1856x1392 @ 60.00 - Full Screen #2
  124. 02:20:38 T:1900 NOTICE: Additional mode: 1856x1392 @ 75.00 - Full Screen #2
  125. 02:20:38 T:1900 NOTICE: Additional mode: 1920x1080 @ 60.00 - Full Screen #2
  126. 02:20:38 T:1900 NOTICE: Additional mode: 1920x1080 @ 75.00 - Full Screen #2
  127. 02:20:38 T:1900 NOTICE: Additional mode: 1920x1080 @ 85.00 - Full Screen #2
  128. 02:20:38 T:1900 NOTICE: Additional mode: 1920x1200 @ 60.00 - Full Screen #2
  129. 02:20:38 T:1900 NOTICE: Additional mode: 1920x1200 @ 75.00 - Full Screen #2
  130. 02:20:38 T:1900 NOTICE: Additional mode: 1920x1200 @ 85.00 - Full Screen #2
  131. 02:20:38 T:1900 NOTICE: Additional mode: 1920x1440 @ 60.00 - Full Screen #2
  132. 02:20:38 T:1900 NOTICE: Additional mode: 1920x1440 @ 75.00 - Full Screen #2
  133. 02:20:38 T:1900 NOTICE: Additional mode: 2048x1152 @ 60.00 - Full Screen #2
  134. 02:20:38 T:1900 NOTICE: Additional mode: 2048x1536 @ 60.00 - Full Screen #2
  135. 02:20:38 T:1900 NOTICE: load settings...
  136. 02:20:38 T:1900 NOTICE: special://profile/ is mapped to: special://masterprofile/
  137. 02:20:38 T:1900 NOTICE: loading special://masterprofile/guisettings.xml
  138. 02:20:38 T:1900 NOTICE: Getting hardware information now...
  139. 02:20:38 T:1900 NOTICE: Checking resolution 11
  140. 02:20:38 T:1900 NOTICE: Loading player core factory settings from special://xbmc/system/playercorefactory.xml.
  141. 02:20:38 T:1900 NOTICE: Loaded playercorefactory configuration
  142. 02:20:38 T:1900 NOTICE: Loading player core factory settings from special://masterprofile/playercorefactory.xml.
  143. 02:20:38 T:1900 NOTICE: special://masterprofile/playercorefactory.xml does not exist. Skipping.
  144. 02:20:38 T:1900 NOTICE: No settings file to load (special://xbmc/system/advancedsettings.xml)
  145. 02:20:38 T:1900 NOTICE: No settings file to load (special://masterprofile/advancedsettings.xml)
  146. 02:20:38 T:1900 NOTICE: Default DVD Player: dvdplayer
  147. 02:20:38 T:1900 NOTICE: Default Video Player: dvdplayer
  148. 02:20:38 T:1900 NOTICE: Default Audio Player: paplayer
  149. 02:20:38 T:1900 NOTICE: Disabled debug logging due to GUI setting. Level 0.
  150. 02:20:38 T:1900 NOTICE: Log level changed to 0
  151. 02:20:38 T:1900 NOTICE: Loading media sources from special://masterprofile/sources.xml
  152. 02:20:39 T:1900 NOTICE: Enabled Joystick: GamePad Pro USB
  153. 02:20:39 T:1900 NOTICE: Details: Total Axis: 2 Total Hats: 0 Total Buttons: 10
  154. 02:20:39 T:1900 NOTICE: Enabled Joystick: ?
  155. 02:20:39 T:1900 NOTICE: Details: Total Axis: 4 Total Hats: 1 Total Buttons: 12
  156. 02:20:39 T:1900 NOTICE: Enabled Joystick: ?
  157. 02:20:39 T:1900 NOTICE: Details: Total Axis: 4 Total Hats: 1 Total Buttons: 12
  158. 02:20:39 T:1900 NOTICE: Enabled Joystick: ?
  159. 02:20:39 T:1900 NOTICE: Details: Total Axis: 4 Total Hats: 1 Total Buttons: 8
  160. 02:20:39 T:1900 NOTICE: Enabled Joystick: ?
  161. 02:20:39 T:1900 NOTICE: Details: Total Axis: 4 Total Hats: 1 Total Buttons: 8
  162. 02:20:39 T:1900 NOTICE: initializing playlistplayer
  163. 02:20:39 T:1900 NOTICE: DONE initializing playlistplayer
  164. 02:20:40 T:1264 ERROR: CRemoteControl::Connect - failed to connect
  165. 02:20:41 T:1900 ERROR: Window Translator: Can't find window skinsettings
  166. 02:20:41 T:1900 ERROR: Window Translator: Can't find window pvrsettings
  167. 02:20:41 T:1900 ERROR: Window Translator: Can't find window pvr
  168. 02:20:43 T:3152 NOTICE: -->Python Interpreter Initialized<--
  169. 02:20:43 T:3152 ERROR: Error Type: <type 'exceptions.AttributeError'>
  170. 02:20:43 T:3152 ERROR: Error Contents: 'module' object has no attribute 'Monitor'
  171. 02:20:43 T:3152 ERROR: Traceback (most recent call last):
  172. File "C:\Users\Brian\AppData\Roaming\XBMC\addons\service.skin.widgets\default.py", line 650, in <module>
  173. class Widgets_Monitor(xbmc.Monitor):
  174. AttributeError: 'module' object has no attribute 'Monitor'
  175. 02:20:43 T:8312 NOTICE: -->Python Interpreter Initialized<--
  176. 02:20:43 T:6864 NOTICE: -->Python Interpreter Initialized<--
  177. 02:20:43 T:1900 NOTICE: initialize done
  178. 02:20:43 T:1900 NOTICE: Running the application...
  179. 02:20:43 T:1900 NOTICE: Webserver: Starting...
  180. 02:20:43 T:1900 NOTICE: WebServer: Started the webserver
  181. 02:20:43 T:1900 NOTICE: starting upnp server
  182. 02:20:43 T:1900 NOTICE: starting upnp renderer
  183. 02:20:43 T:1900 NOTICE: ES: Starting event server
  184. 02:20:43 T:1900 NOTICE: starting zeroconf publishing
  185. 02:20:43 T:9704 NOTICE: ES: Starting UDP Event server on 0.0.0.0:9777
  186. 02:20:43 T:9704 NOTICE: UDP: Listening on port 9777
  187. 02:20:43 T:3996 NOTICE: -->Python Interpreter Initialized<--
  188. 02:20:43 T:8920 NOTICE: -->Python Interpreter Initialized<--
  189. 02:20:44 T:6864 NOTICE: Artwork Downloader: ## Service - Run at startup: False
  190. 02:20:44 T:6864 NOTICE: Artwork Downloader: ## Service - Delayed startup: 00 minutes
  191. 02:20:44 T:6864 NOTICE: Artwork Downloader: ## Service - Run as service: False
  192. 02:20:44 T:6864 NOTICE: Artwork Downloader: ## Service - Time: 00:00
  193. 02:20:44 T:1120 NOTICE: -->Python Interpreter Initialized<--
  194. 02:20:44 T:2484 NOTICE: -->Python Interpreter Initialized<--
  195. 02:20:44 T:1120 NOTICE: StorageServer Module loaded RUN
  196. 02:20:44 T:1120 NOTICE: StorageClient-2.5.0 Starting server
  197. 02:20:44 T:1120 NOTICE: StorageServer-2.5.0 Storage Server starting C:\Users\Brian\AppData\Roaming\XBMC\userdata\addon_data\script.common.plugin.cache\commoncache.db
  198. 02:20:47 T:1900 ERROR: Control 9000 in window 10000 has been asked to focus, but it can't
  199. 02:20:48 T:5820 ERROR: Previous line repeats 1 times.
  200. 02:20:48 T:5820 NOTICE: -->Python Interpreter Initialized<--
RAW Paste Data

Adblocker detected! Please consider disabling it...

We've detected AdBlock Plus or some other adblocking software preventing Pastebin.com from fully loading.

We don't have any obnoxious sound, or popup ads, we actively block these annoying types of ads!

Please add Pastebin.com to your ad blocker whitelist or disable your adblocking software.

×